| time (UTC) | temp F | wind direction | speed MPH | gust MPH | rain 1hr in | rain 24hr in | rain mn in | humidity % | barometer mb |
| 20260506173204 | 63 | 356 | 4.0 | 17.0 | 0.00 | 0.00 | 0.00 | 48 | 1020.1 |
| 20260506163702 | 60 | 108 | 4.0 | 12.0 | 0.00 | 0.00 | 0.00 | 53 | 1020.5 |
| 20260506163203 | 59 | 65 | 5.0 | 13.0 | 0.00 | 0.00 | 0.00 | 54 | 1020.6 |
| 20260506160703 | 59 | 66 | 3.0 | 7.0 | 0.00 | 0.00 | 0.00 | 59 | 1020.5 |
| 20260506160203 | 59 | 325 | 4.0 | 13.0 | 0.00 | 0.00 | 0.00 | 59 | 1020.5 |
| 20260506153703 | 57 | 83 | 3.0 | 9.0 | 0.00 | 0.00 | 0.00 | 61 | 1020.1 |
| 20260506153203 | 58 | 94 | 3.0 | 10.0 | 0.00 | 0.00 | 0.00 | 61 | 1020.2 |
| 20260506150703 | 55 | 96 | 2.0 | 8.0 | 0.00 | 0.00 | 0.00 | 65 | 1020.1 |
| 20260506150204 | 55 | 49 | 4.0 | 12.0 | 0.00 | 0.00 | 0.00 | 65 | 1020.0 |
| 20260506143203 | 53 | 46 | 2.0 | 7.0 | 0.00 | 0.00 | 0.00 | 70 | 1019.6 |
| 20260506140703 | 52 | 100 | 2.0 | 7.0 | 0.00 | 0.00 | 0.00 | 72 | 1019.5 |
| 20260506140203 | 51 | 23 | 2.0 | 7.0 | 0.00 | 0.00 | 0.00 | 72 | 1019.6 |
| 20260506133703 | 50 | 1 | 3.0 | 9.0 | 0.00 | 0.00 | 0.00 | 74 | 1019.6 |
| 20260506133203 | 50 | 17 | 2.0 | 9.0 | 0.00 | 0.00 | 0.00 | 74 | 1019.8 |
| 20260506123703 | 48 | 24 | 1.0 | 8.0 | 0.00 | 0.00 | 0.00 | 80 | 1019.3 |
| 20260506123204 | 48 | 4 | 4.0 | 12.0 | 0.00 | 0.00 | 0.00 | 80 | 1019.5 |
| 20260506120703 | 48 | 30 | 2.0 | 10.0 | 0.00 | 0.00 | 0.00 | 81 | 1019.1 |
| 20260506113703 | 49 | 134 | 2.0 | 5.0 | 0.00 | 0.00 | 0.00 | 82 | 1018.3 |
| 20260506113204 | 49 | 338 | 1.0 | 6.0 | 0.00 | 0.00 | 0.00 | 82 | 1018.3 |
| 20260506110703 | 49 | 31 | 1.0 | 3.0 | 0.00 | 0.00 | 0.00 | 80 | 1018.7 |
| 20260506110203 | 49 | 28 | 1.0 | 6.0 | 0.00 | 0.00 | 0.00 | 80 | 1018.8 |
| 20260506103703 | 49 | 28 | 2.0 | 3.0 | 0.00 | 0.00 | 0.00 | 79 | 1018.6 |
| 20260506103203 | 49 | 27 | 1.0 | 6.0 | 0.00 | 0.00 | 0.00 | 79 | 1018.5 |
| 20260506100703 | 49 | 66 | 1.0 | 3.0 | 0.00 | 0.00 | 0.00 | 79 | 1018.2 |
| 20260506100203 | 49 | 114 | 1.0 | 3.0 | 0.00 | 0.00 | 0.00 | 79 | 1017.8 |
| 20260506093704 | 49 | 341 | 1.0 | 5.0 | 0.00 | 0.00 | 0.00 | 79 | 1017.4 |
| 20260506093203 | 49 | 307 | 1.0 | 6.0 | 0.00 | 0.00 | 0.00 | 78 | 1017.4 |
| 20260506090703 | 49 | 358 | 3.0 | 6.0 | 0.00 | 0.00 | 0.00 | 77 | 1017.1 |
| 20260506090203 | 49 | 2 | 3.0 | 12.0 | 0.00 | 0.00 | 0.00 | 77 | 1017.1 |
| 20260506083703 | 49 | 345 | 5.0 | 10.0 | 0.00 | 0.00 | 0.00 | 77 | 1017.0 |
| 20260506083203 | 49 | 4 | 2.0 | 10.0 | 0.00 | 0.00 | 0.00 | 77 | 1017.0 |
| 20260506080204 | 49 | 350 | 2.0 | 6.0 | 0.00 | 0.00 | 0.00 | 76 | 1016.4 |
| 20260506073203 | 49 | 338 | 2.0 | 6.0 | 0.00 | 0.00 | 0.00 | 75 | 1015.8 |
| 20260506060703 | 50 | 18 | 1.0 | 2.0 | 0.00 | 0.00 | 0.00 | 73 | 1015.9 |
| 20260506060203 | 50 | 18 | 2.0 | 6.0 | 0.00 | 0.00 | 0.00 | 73 | 1015.9 |
| 20260506050704 | 50 | 345 | 2.0 | 5.0 | 0.00 | 0.00 | 0.00 | 72 | 1015.4 |
| 20260506050203 | 49 | 104 | 1.0 | 6.0 | 0.00 | 0.00 | 0.00 | 72 | 1015.5 |
| 20260506043703 | 49 | 20 | 1.0 | 3.0 | 0.00 | 0.00 | 0.00 | 73 | 1015.5 |
| 20260506043203 | 49 | 66 | 2.0 | 13.0 | 0.00 | 0.00 | 0.00 | 73 | 1015.4 |
| 20260506040703 | 50 | 334 | 2.0 | 5.0 | 0.00 | 0.00 | 0.00 | 73 | 1015.2 |
| 20260506040203 | 50 | 357 | 3.0 | 8.0 | 0.00 | 0.00 | 0.00 | 73 | 1015.3 |
| 20260506033703 | 50 | 20 | 2.0 | 8.0 | 0.00 | 0.00 | 0.00 | 72 | 1015.5 |
| 20260506030703 | 50 | 29 | 3.0 | 5.0 | 0.00 | 0.00 | 0.00 | 70 | 1015.7 |
| 20260506030204 | 50 | 11 | 3.0 | 9.0 | 0.00 | 0.00 | 0.00 | 70 | 1015.7 |
| 20260506023204 | 50 | 80 | 3.0 | 9.0 | 0.00 | 0.00 | 0.00 | 73 | 1015.0 |
| 20260506020703 | 50 | 31 | 2.0 | 8.0 | 0.00 | 0.00 | 0.00 | 75 | 1014.6 |
| 20260506020203 | 50 | 334 | 3.0 | 10.0 | 0.00 | 0.00 | 0.00 | 76 | 1014.7 |
| 20260506013703 | 50 | 29 | 2.0 | 8.0 | 0.00 | 0.00 | 0.00 | 79 | 1013.9 |
| 20260506013203 | 50 | 113 | 2.0 | 9.0 | 0.00 | 0.00 | 0.00 | 80 | 1013.8 |
| 20260506010703 | 49 | 69 | 1.0 | 5.0 | 0.00 | 0.00 | 0.00 | 82 | 1013.5 |
| 20260506010203 | 49 | 71 | 3.0 | 9.0 | 0.00 | 0.00 | 0.00 | 82 | 1013.5 |
| 20260506003703 | 50 | 82 | 2.0 | 3.0 | 0.00 | 0.00 | 0.00 | 82 | 1013.2 |
| 20260506000704 | 50 | 78 | 2.0 | 3.0 | 0.00 | 0.00 | 0.00 | 79 | 1013.1 |
| 20260505233703 | 51 | 347 | 2.0 | 5.0 | 0.00 | 0.00 | 0.00 | 75 | 1012.8 |
| 20260505233204 | 51 | 328 | 3.0 | 12.0 | 0.00 | 0.00 | 0.00 | 75 | 1012.7 |
| 20260505230703 | 52 | 7 | 3.0 | 9.0 | 0.00 | 0.00 | 0.00 | 73 | 1012.5 |
| 20260505230203 | 52 | 19 | 3.0 | 16.0 | 0.00 | 0.00 | 0.00 | 73 | 1012.4 |
| 20260505223704 | 52 | 2 | 4.0 | 9.0 | 0.00 | 0.00 | 0.00 | 72 | 1012.1 |
| 20260505223204 | 53 | 43 | 6.0 | 22.0 | 0.00 | 0.00 | 0.00 | 72 | 1012.1 |
| 20260505220703 | 53 | 31 | 3.0 | 9.0 | 0.00 | 0.00 | 0.00 | 71 | 1011.7 |
| 20260505220204 | 53 | 20 | 2.0 | 13.0 | 0.00 | 0.00 | 0.00 | 70 | 1011.5 |
| 20260505213703 | 54 | 358 | 5.0 | 14.0 | 0.00 | 0.00 | 0.00 | 68 | 1011.4 |
| 20260505213203 | 54 | 15 | 4.0 | 12.0 | 0.00 | 0.00 | 0.00 | 68 | 1011.5 |
| 20260505210203 | 54 | 20 | 4.0 | 12.0 | 0.00 | 0.00 | 0.00 | 70 | 1011.1 |
| 20260505203703 | 54 | 27 | 4.0 | 16.0 | 0.00 | 0.00 | 0.00 | 70 | 1011.1 |
| 20260505203203 | 54 | 346 | 4.0 | 14.0 | 0.00 | 0.00 | 0.00 | 70 | 1011.0 |
| 20260505200704 | 54 | 296 | 2.0 | 10.0 | 0.00 | 0.00 | 0.00 | 71 | 1011.0 |
| 20260505193203 | 54 | 62 | 2.0 | 16.0 | 0.00 | 0.00 | 0.00 | 72 | 1011.4 |
| 20260505190204 | 55 | 350 | 4.0 | 12.0 | 0.00 | 0.00 | 0.00 | 71 | 1010.7 |
| 20260505183704 | 55 | 22 | 3.0 | 9.0 | 0.00 | 0.00 | 0.00 | 73 | 1010.4 |
| 20260505180203 | 55 | 334 | 4.0 | 17.0 | 0.00 | 0.00 | 0.00 | 77 | 1010.1 |
| 20260505173703 | 55 | 27 | 3.0 | 8.0 | 0.00 | 0.00 | 0.00 | 77 | 1009.9 |